Location: Ethel Rock
(53.4667°N, 4.5667°W)
Time: 05:28:52
(UTC+00:00)

Cosmos 1975 Rocket - Pass Details

Date: 24 October 2020
Orbit: 604 x 633 km, 82.5° (Epoch: 25 November)

Event Time Altitude Azimuth Distance (km) Brightness Sun altitude
Exits shadow 04:49:53 32° 322° (NW) 1,059 4.0 -20.3°
Drops below altitude 10° 04:52:51 10° 358° (N) 1,972 5.7 -19.9°
Sets 04:55:14 0° 7° (N) 2,884 6.7 -19.5°
